Location: Newark
(49.8969°N, 3.3422°E)
Time: 20:14:45
(UTC+00:00)

Envisat - Pass Details

Date: 12 December 2019
Orbit: 764 x 766 km, 98.1° (Epoch: 28 January)

Event Time Altitude Azimuth Distance (km) Brightness Sun altitude
Rises 05:04:48 0° 30° (NNE) 3,246 6.5 -23.0°
Reaches altitude 10° 05:08:34 10° 59° (ENE) 2,312 6.1 -22.4°
Maximum altitude 05:10:47 13° 85° (E) 2,121 6.3 -22.0°
Drops below altitude 10° 05:12:59 10° 111° (ESE) 2,304 6.6 -21.7°
Sets 05:16:43 0° 140° (SE) 3,222 7.0 -21.1°
